Terminal Aerodrome Forecast
Issued by NWS Pocatello, ID

Home | Current Version | Previous Version | Text Only | Print | Product List | Glossary On
Versions: 1 2 3 4 5 6 7 8 9 10 11 12 13 14 15
000
FTUS45 KPIH 010500
TAFPIH
TAF
KPIH 010520Z 0106/0206 05011KT P6SM SKC
     FM020300 VRB05KT P6SM FEW050=

USA.gov is the U.S. government's official web portal to all federal, state and local government web resources and services.